Regional Weather Roundup
Issued by NWS

Home | Current Version | Previous Version | Text Only | Print | Product List | Glossary On
Versions: 1 2 3 4 5 6 7 8 9 10 11 12 13 14 15 16 17 18 19 20 21 22 23 24 25 26 27 28 29 30 31 32 33 34 35 36 37 38 39 40 41 42 43 44 45 46 47 48 49 50
000
ASUS42 KKEY 292310
RWRKEY

FLORIDA REGIONAL WEATHER ROUNDUP FOR THE FLORIDA KEYS
NATIONAL WEATHER SERVICE KEY WEST FLORIDA
700 PM EDT MON JUN 29 2015

...SOUTH FLORIDA AND THE KEYS...

CITY           SKY/WX    TMP DP  RH WIND       PRES   REMARKS
FORT MYERS     MOSUNNY   89  74  60 NW10      30.05F HX  98
SW REGIONAL AP MOSUNNY   89  71  55 NW6       30.06S HX  95
NAPLES         MOSUNNY   88  74  63 W9        30.06S HX  96
MIAMI          CLOUDY    79  72  79 NE10      30.10R
WEST KENDALL   CLOUDY    82  70  66 NE10      30.09R
HOMESTEAD      PTSUNNY   76  71  83 E6        30.09R THUNDER
MARATHON       MOSUNNY   88  76  67 N8        30.08R HX  99
BOCA CHICA NAS PTSUNNY   88  72  58 NW13      30.08R HX  94
KEY WEST INTL  SUNNY     89  77  67 N10       30.08R HX 101

...INTERNATIONAL WEATHER...

CITY           SKY/WX    TMP DP  RH WIND       PRES   REMARKS
NASSAU BAHAMAS MOSUNNY   84  75  74 S3        30.06F HX  92
CANCUN MEXICO  PTSUNNY   84  79  84 E9        30.04R HX  96
COZUMEL MEXICO CLOUDY    82  77  83 E8        30.02S HX  91

ADJACENT COASTAL WATERS...

STATION/POSITION TIME  SKY/WX   TEMP    WIND        PRES    WAVE
                                AIR SEA DIR/SP/G            HT/PER
                 (UTC)          (F)     (DEG/KT/KT) (MB)    (FT/S)
PULASKI SHOAL LI 2200            85      20/  7/  8 1018.7F
SAND KEY         2250            86     340/ 11/ 13 1018.6R
SOMBRERO KEY     2200            86     320/  3/  4 1019.1R
LONG KEY         2200            87 92  310/  6/  8 1019.1R
MOLASSES REEF    2200            85 85  240/  8/  9 1018.4R
FOWEY ROCKS      NOT AVBL

$$


USA.gov is the U.S. government's official web portal to all federal, state and local government web resources and services.